[ ตารางข้อมูล ] [ Min-Max ] [ วันนี้2 ] [ วันนี้4 ] [ เทียบ-A 3วัน ] [ เทียบ-B 4วัน ]   

วันนี้2   [ ◀ ช่วงเก่ากว่า ] [ ช่วงที่ 30 ] [ ช่วงใหม่กว่า ▶ ] [ ล่าสุด ]    [ 3 ชั่วโมง ] [ 6 ชั่วโมง ] [ 12 ชั่วโมง ] [ 24 ชั่วโมง ]   วันนี้2

อุณภูมิในตู้ Knockdown4529  ราย 12 ชั่วโมง  ที่วัดได้ ในช่วงวันเวลา 16/08/2026 (18:42) ถึง 17/08/2026 (06:42) 
ความชื้นในตู้ Knockdown4529  ราย 12 ชั่วโมง  ที่วัดได้ ในช่วงวันเวลา 16/08/2026 (18:42) ถึง 17/08/2026 (06:42) 
การใช้ไฟฟ้าในตู้ Knockdown4529  ราย 12 ชั่วโมง  ที่วัดได้ ในช่วงวันเวลา 16/08/2026 (18:42) ถึง 17/08/2026 (06:42) 

  DS18B20SHTC3PZEM-004TWiFi 
IDDate d/m/Y & Timedata1
สูง
data2
ต่ำ
data3
นอก
temp
pcb
hum
pcb
VoltAmpWattrssiTime
 13360  17/08/2026 06:38:08  27.1  27.1  25.0  28.1  67.1  229.7  0.04  4.6  -78  06:38 
 13359  17/08/2026 06:33:25  27.1  27.1  25.1  28.1  67.3  232.6  0.04  4.5  -79  06:33 
 13358  17/08/2026 06:28:41  27.1  27.1  25.2  28.1  67.2  231.5  0.04  4.5  -75  06:28 
 13357  17/08/2026 06:23:58  27.1  27.2  25.5  28.1  67.3  232.0  0.04  4.5  -76  06:23 
 13356  17/08/2026 06:19:15  27.1  27.2  25.5  28.1  67.3  230.2  0.04  4.5  -78  06:19 
 13355  17/08/2026 06:14:32  27.1  27.2  25.5  28.1  67.3  229.5  0.04  4.5  -77  06:14 
 13354  17/08/2026 06:09:49  27.1  27.2  25.5  28.1  67.3  230.7  0.04  4.5  -77  06:09 
 13353  17/08/2026 06:05:06  27.1  27.2  25.5  28.1  67.3  228.4  0.04  4.6  -77  06:05 
 13352  17/08/2026 06:00:23  27.1  27.2  25.4  28.2  67.4  231.1  0.04  4.5  -75  06:00 
 13351  17/08/2026 05:55:40  27.1  27.2  25.5  28.1  67.2  229.7  0.04  4.5  -78  05:55 
 13350  17/08/2026 05:50:56  27.1  27.2  25.4  27.9  67.3  231.3  0.04  4.5  -77  05:50 
 13349  17/08/2026 05:46:13  27.1  27.2  25.3  28.1  67.3  231.7  0.04  4.5  -76  05:46 
 13348  17/08/2026 05:41:31  27.1  27.2  25.3  28.2  67.4  229.2  0.04  4.5  -77  05:41 
 13347  17/08/2026 05:36:47  27.2  27.2  25.3  28.2  67.3  230.2  0.04  4.5  -77  05:36 
 13346  17/08/2026 05:32:03  27.2  27.3  25.3  27.9  67.3  224.3  0.04  4.5  -78  05:32 
 13345  17/08/2026 05:27:20  27.2  27.3  25.5  28.3  67.4  230.8  0.04  4.6  -74  05:27 
 13344  17/08/2026 05:22:37  27.2  27.3  25.5  28.2  67.4  230.1  0.04  4.5  -79  05:22 
 13343  17/08/2026 05:17:54  27.2  27.3  25.5  28.1  67.5  229.6  0.04  4.6  -79  05:17 
 13342  17/08/2026 05:13:11  27.2  27.3  25.5  28.3  67.3  229.5  0.04  4.5  -79  05:13 
 13341  17/08/2026 05:08:28  27.2  27.3  25.5  28.2  67.3  230.1  0.04  4.6  -77  05:08 
 13340  17/08/2026 05:03:45  27.2  27.4  25.5  28.2  67.5  229.6  0.04  4.6  -78  05:03 
 13339  17/08/2026 04:59:02  27.2  27.4  25.5  28.2  67.4  230.2  0.03  4.5  -78  04:59 
 13338  17/08/2026 04:54:19  27.2  27.4  25.4  28.2  67.3  228.7  0.04  4.5  -77  04:54 
 13337  17/08/2026 04:49:35  27.2  27.4  25.2  28.2  67.4  227.6  0.04  4.6  -77  04:49 

Data every 5 minute.


ใช้เวลาประมวลผล 0.03161 วินาที